Location: *
(53.1947°S, 174.0063°W)
Time: 15:04:34
(UTC+00:00)

Daily predictions for brighter satellites

Satellite Brightness Start Highest point End
(mag) Time Altitude Azimuth Time Altitude Azimuth Time Altitude Azimuth
USA 59 Rocket 3.1 15:05:20 25° NE 15:05:20 25° NE 15:07:49 10° NE
ATLAS 2AS CENTAUR R/B 3.7 15:53:33 36° S 15:53:33 36° S 15:59:50 10° ESE
SL-16 R/B 3.5 15:52:53 10° SSE 15:56:32 37° SSE 15:56:32 37° SSE
SL-16 R/B 4.4 16:01:57 15° S 16:02:42 15° SSE 16:05:59 10° SE
Cosmos 1818 4.1 16:15:53 54° SE 16:15:53 54° SE 16:20:02 10° SE
Meteor 2-21 4.5 16:14:19 74° NNE 16:14:48 79° E 16:21:07 10° SSE
SL-16 R/B 4.0 16:18:48 20° S 16:18:48 20° S 16:20:58 10° SSE
Cosmos 2333 Rocket 4.4 16:16:14 14° S 16:16:45 14° S 16:19:42 10° SE
Cosmos 1697 Rocket 3.5 16:16:52 41° SSE 16:17:57 46° SE 16:23:25 10° ENE
Cosmos 2237 Rocket 4.3 16:22:10 15° S 16:22:10 15° S 16:23:56 10° SSE
Cosmos 1603 4.3 16:22:19 48° SSE 16:22:19 48° SSE 16:26:25 10° SSE
Cosmos 1943 4.2 16:26:33 35° S 16:26:33 35° S 16:30:05 10° SSE
Cosmos 2034 Rocket 3.9 16:29:10 29° S 16:32:37 83° E 16:38:49 10° NNE
Cosmos 1980 Rocket 3.4 16:35:51 26° S 16:38:11 36° SE 16:43:24 10° ENE
Cosmos 2322 Rocket 4.3 16:39:56 14° S 16:41:56 16° SSE 16:45:25 10° ESE
SMAP 3.1 16:38:21 10° NNE 16:43:02 79° E 16:43:02 79° E
Meteor 2-21 Rocket 4.4 16:38:01 10° N 16:44:15 88° WSW 16:50:36 10° S
SL-4 R/B 3.4 16:44:42 34° NNE 16:44:50 34° NNE 16:48:36 10° E
USA 215 3.6 16:38:53 10° NNE 16:45:05 44° NW 16:45:12 44° NW
DMSP B5D2-2 4.0 16:40:25 10° SSE 16:45:46 87° WSW 16:47:13 50° NNW
Okean 3 Rocket 4.0 16:45:33 50° SSE 16:46:29 63° ESE 16:50:59 10° NNE
BREEZE-M DEB (TANK) 3.2 16:47:39 59° NNW 16:48:04 61° N 16:58:14 10° E
USA 59 Rocket 2.7 16:51:56 23° NW 16:51:56 23° NW 16:55:13 10° NNW
NOSS 3-4 (C) 3.6 16:51:30 50° WSW 16:53:29 77° NW 16:59:51 10° NE
NOSS 3-4 (A) 3.6 16:51:40 51° WSW 16:53:36 76° NW 16:59:56 10° NE
Cosmos 1833 Rocket 4.2 16:48:31 10° N 16:53:37 36° ENE 16:58:45 10° SE
Helios 1B rocket 3.5 16:50:08 10° NE 16:53:52 41° ESE 16:55:27 28° SSE
Cosmos 614 Rocket 4.2 16:50:17 10° NNW 16:55:19 66° ENE 17:00:27 10° SSE
Cosmos 2219 Rocket 4.3 16:57:29 12° S 16:59:13 14° SSE 17:02:06 10° SE
Cosmos 220 Rocket 3.9 16:59:37 84° ESE 16:59:37 84° ESE 17:03:55 10° SSE
Cosmos 1842 Rocket 4.3 16:56:28 10° N 17:00:52 54° E 17:05:20 10° SSE
Cosmos 1607 4.3 17:00:39 10° NNW 17:06:38 62° NE 17:12:40 10° SE
Aureole 3 Rocket 3.6 17:10:43 41° NNW 17:10:43 41° NNW 17:13:13 10° N
Meteor 1-14 Rocket 4.1 17:08:10 35° SSW 17:10:31 67° W 17:16:06 10° N
Cosmos 1464 Rocket 4.4 17:11:28 42° W 17:11:28 42° W 17:17:06 10° NNW
Cosmos 2360 4.1 17:09:54 47° SW 17:11:27 67° WNW 17:17:08 10° NNE
CZ-4 R/B 4.2 17:10:42 10° ESE 17:12:09 12° SE 17:13:35 10° SSE
Cosmos 1656 4.0 17:13:48 42° WNW 17:13:48 42° WNW 17:18:50 10° N
Radarsat 4.5 17:08:56 10° N 17:14:09 68° WNW 17:16:30 33° SSW
Cosmos 1408 Rocket 3.8 17:13:27 22° S 17:16:18 71° ESE 17:20:43 10° NNE
Meteor 1-31 Rocket 2.8 17:13:24 10° NNE 17:17:14 79° ESE 17:18:21 44° S
Cosmos 2221 4.0 17:24:21 23° S 17:24:21 23° S 17:26:10 10° S
NOSS 3-3 (C) 4.5 17:18:01 19° NW 17:24:35 77° SW 17:31:54 10° SE
CORIOLIS 4.3 17:20:40 10° N 17:25:57 52° W 17:28:25 30° SW
Cosmos 1992 Rocket 4.3 17:25:19 43° W 17:26:08 46° WNW 17:31:08 10° N
Meteor 2-10 4.3 17:22:07 10° SSW 17:27:53 81° ESE 17:33:41 10° NNE
Tsikada Rocket 3.9 17:21:57 10° NNW 17:28:13 81° WSW 17:34:31 10° S
Cosmos 2360 Rocket 4.1 17:25:15 12° SSW 17:28:55 20° SSE 17:33:03 10° ESE
Cosmos 1743 Rocket 4.1 17:25:16 10° S 17:29:34 57° ESE 17:33:52 10° NNE
CZ-4B R/B 4.5 17:28:11 10° NE 17:32:47 43° ESE 17:37:22 10° S
Molniya-1 3.6 17:35:36 67° WNW 17:35:43 68° NW 17:40:50 10° NE
IGS 5A 3.5 17:32:58 10° NNE 17:37:05 81° ESE 17:40:33 15° SSW
Cosmos 1634 Rocket 4.0 17:31:26 10° SSW 17:37:48 67° W 17:44:07 10° N
USA 32 4.1 17:33:17 10° N 17:38:35 80° E 17:43:55 10° S
Cosmos 1805 4.2 17:36:06 10° S 17:39:47 46° ESE 17:43:24 10° NNE
SL-16 R/B 3.7 17:37:17 10° S 17:41:36 23° SW 17:41:36 23° SW
SKYMED 2 4.2 17:38:01 10° SSE 17:42:25 58° ENE 17:46:46 10° N
ATLAS 2AS CENTAUR R/B 3.5 17:40:59 21° SW 17:45:39 45° SSE 17:52:46 10° E
Cosmos 1536 2.9 17:44:37 37° SW 17:45:45 50° W 17:49:31 10° N
FAST Rocket 4.5 17:45:06 24° S 17:46:46 80° E 17:50:47 10° NNE
ADEOS Rocket 2.7 17:42:27 10° NNE 17:48:04 79° WNW 17:53:42 10° SSW
Okean 1 3.1 17:44:40 10° N 17:48:31 89° ENE 17:52:25 10° SSE
SL-16 R/B 3.5 17:43:48 12° SSW 17:48:37 34° SE 17:53:48 10° ENE
CZ-2C R/B 3.0 17:47:00 10° N 17:50:38 43° W 17:51:39 34° WSW
CZ-4B R/B 4.3 17:50:21 10° N 17:54:27 47° W 17:57:09 21° SSW
Cosmos 2082 Rocket 4.1 17:50:08 10° NNE 17:55:06 33° ENE 18:00:07 10° SE
Landsat 7 4.2 17:51:08 10° NNE 17:55:51 66° ESE 18:00:38 10° S
SAR-Lupe-2 3.5 17:54:48 10° NNE 17:58:26 80° WNW 18:01:23 15° SSW
Cosmos 2369 3.8 17:53:55 15° SSW 17:58:41 82° ESE 18:04:23 10° NE
Cosmos 1818 4.3 17:56:33 25° WSW 17:58:42 35° SSW 18:03:38 10° SE
Resurs 01 Rocket 3.9 17:57:16 10° ENE 18:00:42 22° ESE 18:04:10 10° S
Cosmos 1697 Rocket 3.1 17:58:36 22° SW 18:01:56 43° WNW 18:07:17 10° N
Sich 1 3.0 17:57:52 11° SSW 18:01:58 65° W 18:06:16 10° N
SL-16 R/B 4.0 18:00:39 13° SSW 18:02:06 14° SSW 18:05:07 10° SSE
Cosmos 1500 Rocket 3.6 17:58:12 12° SSW 18:02:19 57° W 18:06:40 10° N
Radarsat Rocket 4.2 17:55:45 10° NNE 18:02:53 73° WNW 18:09:16 10° SSW
Cosmos 2333 Rocket 3.8 17:58:22 10° SSW 18:03:10 26° SE 18:07:55 10° E
Cosmos 1633 Rocket 4.2 18:00:08 10° S 18:04:25 44° ESE 18:08:39 10° NE
Cosmos 2237 Rocket 4.3 18:04:10 10° SSW 18:06:50 13° S 18:09:30 10° SSE
ADEOS 3.9 18:03:09 10° NNE 18:08:23 70° ESE 18:13:40 10° SSW
Cosmos 1340 3.4 18:09:29 26° W 18:09:53 27° W 18:12:50 10° NNW
Cosmos 1626 3.6 18:08:56 10° NNE 18:11:56 34° E 18:14:57 10° SSE
Cosmos 540 Rocket 4.1 18:08:49 10° SSW 18:13:56 56° ESE 18:19:01 10° NE
Cosmos 1340 Rocket 2.9 18:10:20 10° NNW 18:14:14 54° WSW 18:18:13 10° S
Resurs 1-3 4.3 18:11:01 10° NE 18:15:18 54° ESE 18:19:39 10° S
YAOGAN 1 2.5 18:14:00 10° N 18:18:21 75° WNW 18:22:45 10° SSW
Meteor 1-10 Rocket 4.5 18:13:03 10° NNW 18:18:54 54° WSW 18:24:50 10° S
Cosmos 1805 Rocket 3.8 18:15:40 10° SSW 18:19:53 45° W 18:24:04 10° NNW
USA 186 3.9 18:17:50 10° ENE 18:20:22 24° ESE 18:22:58 10° S
Cosmos 1980 Rocket 2.3 18:17:36 14° SW 18:22:30 58° WNW 18:28:02 10° NNE
SL-4 R/B 2.3 18:19:28 12° WNW 18:23:19 67° N 18:27:18 10° E
Cosmos 2322 Rocket 3.3 18:22:17 10° SSW 18:27:39 39° SE 18:32:56 10° ENE
Helios 1B rocket 3.5 18:25:10 10° NNW 18:28:28 25° W 18:30:56 15° SW
Meteor 1-11 Rocket 4.4 18:23:56 10° SSW 18:28:54 33° W 18:33:47 10° NNW
COSMO-SKYMED 1 2.7 18:26:08 10° S 18:30:29 53° WSW 18:34:46 10° NW
Cosmos 1733 4.1 18:29:22 15° SW 18:31:28 25° W 18:34:28 10° NNW
Cosmos 1023 Rocket 4.5 18:26:28 10° NNW 18:31:42 86° WSW 18:37:02 10° SSE
Cosmos 1666 Rocket 3.6 18:27:16 10° S 18:31:50 90° ENE 18:36:17 10° N
Cosmos 1975 2.7 18:28:34 10° SSW 18:32:32 68° W 18:36:28 10° N
Meteor 2-4 Rocket 4.0 18:30:20 10° N 18:35:49 75° E 18:41:31 10° SSE
Cosmos 2279 Rocket 4.5 18:30:38 10° SSW 18:36:25 39° W 18:42:08 10° NNW
Cosmos 1833 Rocket 2.8 18:31:49 10° NW 18:37:22 53° SW 18:42:59 10° SSE
SeaSat 1 4.4 18:34:07 10° ESE 18:37:35 19° SSE 18:41:03 10° SSW
Nadezhda 4 Rocket 4.0 18:32:41 10° N 18:38:53 89° W 18:45:08 10° S
SPOT 1/Viking Rocket 3.8 18:36:32 10° NNE 18:41:48 79° ESE 18:47:07 10° SSW
Cosmos 1269 Rocket 4.5 18:39:51 10° WNW 18:44:53 41° SW 18:49:58 10° SSE
Cosmos 2219 Rocket 3.7 18:40:20 10° SSW 18:45:12 28° SE 18:50:01 10° E
CZ-4 R/B 1.4 18:42:14 10° NNE 18:46:05 79° ESE 18:49:58 10° SSW
SL-08 R/B 3.5 18:41:15 10° SSE 18:46:06 83° ENE 18:50:59 10° NNW
Cosmos 2278 3.8 18:41:10 10° SSW 18:46:55 81° ESE 18:52:38 10° NE
Cosmos 1470 3.9 18:44:06 10° S 18:47:49 43° ESE 18:51:28 10° NE
Cosmos 1140 Rocket 3.5 18:42:45 10° NW 18:47:57 70° WSW 18:53:15 10° SSE
Helios 1A 2.9 18:46:28 10° SSE 18:50:38 83° WSW 18:54:45 10° NNW
Cosmos 407 Rocket 3.6 18:45:20 10° NNW 18:50:39 89° ENE 18:56:06 10° SSE
Meteor 1-27 Rocket 4.0 18:45:47 10° NW 18:51:20 46° WSW 18:56:52 10° S
COSMOS 2406 3.8 18:46:23 10° NNW 18:52:02 65° ENE 18:57:46 10° SE
Meteor PRIRODA 3.9 18:49:20 10° N 18:52:40 44° W 18:56:05 10° SSW
Cosmos 1092 Rocket 4.4 18:47:52 10° N 18:54:00 68° E 19:00:13 10° SSE
Cosmos 1607 4.2 18:48:19 10° WNW 18:54:09 45° SSW 19:00:03 10° SE
Okean O Rocket 2.6 18:52:23 10° NE 18:56:39 47° ESE 19:00:59 10° S
Genesis I 3.1 18:57:11 10° WNW 19:00:42 53° SW 19:04:13 10° SE
RESURS DK-1 2.5 18:56:39 10° SSW 19:00:48 74° SE 19:04:53 10° NE
COSMOS 2428 4.4 19:02:14 10° SSW 19:06:56 24° SSE 19:11:34 10° E
Cosmos 2251 Rocket 3.5 19:04:14 10° NNW 19:09:34 76° WSW 19:14:55 10° SSE
Cosmos 2026 Rocket 4.2 19:04:22 10° N 19:10:45 87° E 19:17:16 10° S
Cosmos 1328 Rocket 3.6 19:06:49 10° NNW 19:11:17 72° WSW 19:15:48 10° S
CZ-4B R/B 4.2 19:07:11 10° NNW 19:11:34 32° W 19:15:56 10° SSW
Cosmos 2237 4.3 19:05:56 10° SW 19:11:43 78° WNW 19:17:27 10° NNE
